{"data":{"norad_id":62699,"epoch":"2026-05-25T04:16:53.453280Z","epoch_age_seconds":52911,"freshness":"FRESH","line1":"1 62699U 25009CU  26145.17839645  .00008845  00000+0  67825-3 0  9994","line2":"2 62699  97.6849 226.7554 0002263 192.2000 167.9170 15.02045174 74107","mean_motion":15.02045174,"eccentricity":0.0002263,"inclination_deg":97.6849,"raan_deg":226.7554,"arg_perigee_deg":192.2,"mean_anomaly_deg":167.917,"bstar":0.00067825,"rev_number":7410,"period_min":95.869287084438,"perigee_km":559.02047482076,"apogee_km":562.16094298181,"semimajor_km":6938.7277089013,"source":"CELESTRAK","updated_at":"2026-05-25T13:38:13.537795Z"}}